CAPE
0 0 0 0 0 0 0 0 0 0 0 0 0 0 0 0 0 0 0 0 0 0 0 0 0 0 0 0 0 0 0 3 4 1 0 0 0 0 1 14 9 8 2
0 0 0 0 0 0 0 0 0 0 0 0 0 0 0 0 0 0 0 0 0 0 0 0 0 0 0 0 0 0 0 0 6 6 1 0 0 0 0 8 10 7 4
0 0 0 0 0 0 0 0 0 0 0 0 0 0 0 0 0 0 0 0 0 0 0 0 0 0 0 0 0 0 0 0 0 5 4 0 0 0 0 3 3 2 10
0 0 0 0 0 0 0 0 0 0 0 0 0 0 0 0 0 0 0 0 0 0 0 0 0 0 0 0 0 0 0 0 0 0 1 1 0 0 1 2 0 1 5
0 0 0 0 0 0 0 0 0 0 0 0 0 0 0 0 0 0 0 0 0 0 0 0 0 0 2 1 2 0 1 1 0 0 0 3 1 11 7 4 5 0 24
0 0 0 0 0 0 0 0 0 0 0 0 0 0 0 0 0 0 0 0 0 0 0 0 0 0 0 0 0 0 0 15 10 7 14 34 23 4 1 1 2 4 6
0 0 0 0 0 0 0 0 0 0 0 0 0 0 0 0 0 0 0 0 0 0 0 0 0 3 0 0 0 0 0 3 0 0 0 0 0 1 0 0 0 0 1
0 0 0 0 0 0 0 0 0 0 0 0 0 0 0 0 0 0 0 0 0 0 0 0 15 10 0 0 0 0 0 0 0 0 0 0 0 0 0 0 0 2 3
2 2 4 0 0 0 0 0 0 0 0 0 0 0 0 0 0 0 0 0 0 0 7 10 22 13 2 0 8 2 0 0 0 0 0 0 0 0 0 0 0 0 0
10 9 3 2 4 3 1 0 0 0 0 0 0 0 0 0 0 0 0 0 0 3 17 10 0 18 3 0 7 6 8 0 0 0 0 0 0 0 0 0 0 0 1
10 4 5 3 2 1 0 0 0 0 0 0 0 0 0 0 0 0 0 1 3 3 0 0 0 0 0 1 0 8 5 3 1 0 0 0 0 0 0 0 0 1 2
5 5 3 1 3 0 0 0 0 0 0 0 0 0 0 0 0 0 0 0 0 0 3 16 10 1 0 0 1 6 2 0 0 0 0 1 0 0 0 0 0 0 4
0 0 0 0 0 0 0 0 0 0 0 0 0 0 0 0 0 0 0 0 0 4 5 10 2 0 0 0 0 1 4 11 2 1 2 1 3 0 0 0 0 0 0
0 0 0 0 0 0 0 0 0 0 0 1 1 2 4 4 1 0 0 0 1 1 2 3 3 2 1 1 0 0 4 4 2 2 6 2 6 1 0 0 0 0 1
0 0 0 0 0 0 0 1 0 0 1 2 4 2 3 4 4 1 6 7 7 6 7 7 9 11 11 12 7 2 2 4 2 3 5 6 3 2 8 11 0 0 7
0 0 0 0 0 0 0 0 0 0 0 0 0 0 0 1 1 4 7 1 2 5 3 9 10 11 18 19 12 13 8 7 8 1 3 5 3 2 10 11 10 1 1
0 0 0 0 0 1 2 2 2 0 0 0 0 0 2 7 6 5 0 3 3 2 4 5 14 13 24 17 17 19 15 11 9 5 5 4 7 4 1 0 18 14 6
0 0 0 0 0 9 2 6 5 3 2 3 2 3 4 6 4 4 2 7 1 3 8 9 7 24 22 29 26 21 19 17 14 8 5 4 4 3 1 0 11 23 23
0 0 0 0 0 0 1 1 2 8 9 8 7 1 0 6 4 3 3 8 8 8 12 20 19 20 22 18 27 27 22 18 14 16 11 11 10 11 6 15 11 0 3
0 0 0 0 0 0 0 5 5 7 6 7 7 4 4 10 8 2 7 8 8 9 8 14 12 19 18 20 21 24 15 17 16 15 14 12 15 14 10 3 0 0 6
0 0 0 0 0 0 0 1 6 7 8 9 10 3 1 7 9 8 9 7 8 9 3 8 8 13 15 18 19 16 20 17 18 14 16 17 19 19 17 13 9 13 13
0 0 0 0 0 0 1 1 4 6 9 11 10 3 0 10 10 9 8 8 9 8 7 10 13 16 13 11 13 19 19 21 24 22 20 19 18 9 8 3 14 22 25
0 0 0 0 0 0 0 1 1 3 7 9 11 10 7 7 9 8 9 11 11 9 11 11 13 11 11 12 6 13 9 30 21 11 22 12 12 11 13 6 6 10 34
0 0 0 0 0 1 1 2 1 0 3 7 9 10 12 6 10 8 8 12 13 10 9 10 13 15 13 9 13 3 8 11 27 26 13 12 11 13 9 13 5 15 25
0 0 1 0 0 0 2 0 0 1 2 6 7 9 11 9 8 9 9 12 13 11 9 10 11 11 6 11 11 8 1 0 0 3 17 12 10 2 1 19 23 24 18
0 0 0 1 0 1 2 2 1 2 2 5 7 6 6 12 8 9 10 14 13 12 10 10 10 11 13 9 7 2 0 0 0 0 4 11 13 7 7 5 9 7 4
CIN
-0 -0 -0 -0 -0 -0 -0 -0 -0 -0 -0 -0 -0 -0 -0 -0 -0 -0 -0 -0 -0 -0 -0 -0 -0 -0 -0 -0 -0 -0 -0 -0 -0 -0 -0 -0 -0 -0 -0 -60 -36 -27 -0
-0 -0 -0 -0 -0 -0 -0 -0 -0 -0 -0 -0 -0 -0 -0 -0 -0 -0 -0 -0 -0 -0 -0 -0 -0 -0 -0 -0 -0 -0 -0 -0 -0 -0 -0 -0 -0 -0 -0 -39 -47 -0 -0
-0 -0 -0 -0 -0 -0 -0 -0 -0 -0 -0 -0 -0 -0 -0 -0 -0 -0 -0 -0 -0 -0 -0 -0 -0 -0 -0 -0 -0 -0 -0 -0 -0 -0 -0 -0 -0 -0 -0 -0 -0 -86 -35
-0 -0 -0 -0 -0 -0 -0 -0 -0 -0 -0 -0 -0 -0 -0 -0 -0 -0 -0 -0 -0 -0 -0 -0 -0 -0 -0 -0 -0 -0 -0 -0 -0 -0 -0 -0 -0 -0 -0 -0 -0 -1 -0
-0 -0 -0 -0 -0 -0 -0 -0 -0 -0 -0 -0 -0 -0 -0 -0 -0 -0 -0 -0 -0 -0 -0 -0 -0 -0 -0 -0 -0 -0 -0 -0 -0 -0 -0 -2 -0 -0 -0 -0 -0 -0 -7
-0 -0 -0 -0 -0 -0 -0 -0 -0 -0 -0 -0 -0 -0 -0 -0 -0 -0 -0 -0 -0 -0 -0 -0 -0 -0 -0 -0 -0 -0 -0 -3 -6 -3 -0 -0 -1 -0 -0 -0 -0 -0 -0
-0 -0 -0 -0 -0 -0 -0 -0 -0 -0 -0 -0 -0 -0 -0 -0 -0 -0 -0 -0 -0 -0 -0 -0 -1 -6 -0 -0 -0 -0 -0 -29 -13 -0 -0 -0 -0 -0 -0 -0 -0 -0 -0
-0 -0 -0 -0 -0 -0 -0 -0 -0 -0 -0 -0 -0 -0 -0 -0 -0 -0 -0 -0 -0 -0 -0 -5 -15 -10 -8 -9 -0 -0 -0 -0 -0 -0 -0 -0 -0 -0 -0 -0 -0 -0 -0
-0 -0 -0 -0 -0 -0 -0 -0 -0 -0 -0 -0 -0 -0 -0 -0 -0 -0 -0 -0 -0 -0 -18 -3 -14 -14 -30 -0 -3 -6 -0 -0 -0 -0 -0 -0 -0 -0 -0 -0 -0 -0 -0
-0 -0 -0 -0 -0 -0 -0 -0 -0 -0 -0 -0 -0 -0 -0 -0 -0 -0 -0 -0 -4 -2 -3 -8 -4 -8 -15 -0 -18 -14 -2 -6 -0 -0 -0 -0 -0 -0 -0 -0 -0 -0 -0
-0 -0 -0 -0 -0 -0 -0 -0 -0 -0 -0 -0 -0 -0 -0 -0 -0 -0 -0 -17 -7 -7 -0 -0 -0 -0 -10 -37 -0 -24 -23 -13 -24 -0 -0 -0 -0 -0 -0 -0 -0 -0 -0
-0 -0 -0 -0 -0 -0 -0 -0 -0 -0 -0 -0 -0 -0 -0 -0 -0 -0 -0 -0 -0 -10 -9 -3 -18 -27 -0 -0 -42 -35 -37 -6 -19 -11 -0 -0 -0 -0 -0 -0 -0 -0 -0
-0 -0 -0 -0 -0 -0 -0 -0 -0 -0 -0 -0 -0 -0 -0 -0 -0 -0 -0 -0 -27 -4 -1 -2 -13 -0 -0 -0 -2 -27 -32 -7 -11 -4 -0 -0 -0 -0 -0 -0 -0 -0 -0
-0 -0 -0 -0 -0 -0 -0 -0 -0 -0 -0 -0 -0 -0 -0 -0 -0 -0 -0 -0 -0 -0 -0 -0 -0 -1 -0 -1 -6 -20 -21 -19 -8 -2 -0 -0 -0 -0 -0 -0 -0 -0 -0
-0 -0 -0 -0 -0 -0 -0 -0 -0 -0 -0 -0 -0 -0 -0 -0 -0 -0 -0 -0 -0 -0 -0 -0 -0 -0 -0 -0 -0 -0 -11 -12 -9 -5 -3 -1 -0 -0 -1 -3 -6 -0 -1
-0 -0 -0 -0 -0 -0 -0 -0 -0 -0 -0 -0 -0 -0 -0 -0 -3 -2 -0 -0 -0 -0 -0 -0 -0 -0 -0 -0 -0 -0 -0 -0 -1 -0 -2 -1 -0 -0 -0 -4 -10 -5 -2
-0 -0 -0 -0 -2 -2 -0 -0 -0 -0 -1 -0 -0 -0 -2 -2 -1 -1 -0 -0 -3 -0 -0 -0 -0 -0 -0 -0 -0 -0 -0 -0 -0 -0 -0 -0 -0 -0 -0 -4 -2 -1 -0
-0 -0 -0 -0 -0 -0 -3 -0 -0 -0 -0 -0 -1 -1 -2 -2 -0 -1 -3 -1 -0 -0 -0 -0 -0 -0 -0 -0 -0 -0 -0 -0 -0 -0 -0 -0 -1 -0 -0 -0 -1 -0 -0
-0 -0 -0 -0 -0 -0 -1 -0 -0 -0 -0 -0 -0 -0 -1 -1 -0 -1 -1 -0 -0 -0 -0 -0 -0 -0 -0 -0 -0 -0 -0 -0 -0 -0 -0 -0 -0 -0 -0 -0 -2 -0 -5
-0 -0 -0 -0 -0 -0 -0 -0 -0 -0 -0 -0 -0 -0 -0 -0 -0 -0 -0 -0 -0 -0 -0 -0 -0 -0 -0 -0 -0 -0 -1 -0 -0 -0 -0 -0 -0 -0 -0 -1 -11 -2 -3
-0 -0 -0 -0 -0 -0 -0 -0 -0 -0 -0 -0 -0 -0 -6 -0 -0 -0 -0 -0 -0 -0 -0 -0 -0 -0 -0 -0 -0 -0 -0 -0 -0 -0 -0 -0 -0 -0 -0 -0 -0 -0 -0
-0 -0 -0 -0 -0 -0 -0 -0 -0 -0 -0 -0 -0 -0 -2 -0 -0 -0 -0 -0 -0 -0 -0 -0 -0 -0 -0 -0 -0 -0 -0 -0 -0 -0 -0 -0 -0 -0 -0 -0 -0 -0 -0
-0 -0 -0 -0 -0 -0 -0 -0 -0 -0 -0 -0 -0 -0 -0 -0 -0 -0 -0 -0 -0 -0 -0 -0 -0 -0 -0 -0 -0 -0 -0 -0 -0 -0 -0 -0 -0 -0 -0 -0 -0 -1 -0
-0 -0 -0 -0 -0 -0 -0 -0 -0 -0 -0 -0 -0 -0 -0 -0 -0 -0 -0 -0 -0 -0 -0 -0 -0 -0 -0 -0 -0 -0 -0 -0 -0 -0 -0 -0 -0 -0 -0 -0 -0 -0 -0
-0 -0 -0 -0 -0 -0 -0 -0 -0 -0 -0 -0 -0 -0 -0 -0 -0 -0 -0 -0 -0 -0 -0 -0 -0 -0 -0 -0 -0 -0 -0 -0 -0 -1 -0 -0 -0 -0 -0 -0 -0 -0 -1
-0 -0 -0 -0 -0 -0 -0 -0 -0 -0 -0 -0 -0 -0 -0 -0 -0 -0 -0 -0 -0 -0 -0 -0 -0 -0 -0 -0 -0 -0 -0 -0 -0 -0 -0 -0 -0 -0 -0 -0 -0 -0 -0
Wind_Speed
7 6 12 12 9 7 8 8 7 5 6 5 6 6 5 4 3 4 4 4 5 4 4 5 5 5 5 5 4 3 4 3 5 4 4 8 7 12 11 6 4 2 3
7 7 6 10 8 9 8 7 7 8 5 5 5 5 5 5 4 4 4 3 3 4 4 5 6 6 7 6 4 5 4 5 4 10 6 6 6 10 11 10 3 2 2
6 8 8 8 9 9 10 8 6 7 6 6 5 5 5 4 4 3 2 2 3 3 3 3 6 7 7 6 7 6 4 4 5 4 6 3 3 5 8 8 8 4 2
17 13 14 11 10 9 9 8 8 7 7 6 4 5 4 5 3 2 2 2 3 3 4 5 6 6 7 9 7 8 6 5 4 5 5 3 3 4 4 8 9 7 3
15 12 10 8 6 5 6 6 6 6 6 6 5 4 3 3 2 4 3 1 2 4 5 5 5 8 10 9 7 7 8 5 5 4 4 2 3 4 8 7 5 8 7
12 12 10 10 9 7 7 6 7 7 6 6 5 4 1 1 4 6 2 2 4 5 7 7 6 6 7 11 13 12 9 7 6 3 3 3 6 4 5 6 6 6 5
8 8 8 9 8 7 8 7 7 6 6 6 4 2 1 1 4 2 4 1 4 5 6 6 5 5 7 8 11 11 10 7 8 4 4 5 5 7 6 6 7 5 4
9 9 9 11 10 7 8 8 5 4 4 3 2 2 1 4 5 5 6 4 4 7 7 8 5 3 4 6 9 10 8 7 7 6 4 5 6 8 5 5 6 8 7
13 12 11 11 12 8 8 8 4 4 2 1 2 1 0 4 6 5 6 4 5 7 6 6 3 3 6 3 7 10 11 7 6 8 8 9 9 8 7 5 4 4 5
12 12 10 13 9 8 6 5 3 2 1 3 4 3 5 3 5 5 3 2 5 6 5 4 4 7 10 7 5 6 10 9 9 12 11 10 9 10 12 5 5 5 4
12 10 13 10 10 5 3 3 1 3 4 3 4 5 6 5 5 7 8 5 5 6 6 5 4 8 6 5 7 7 9 7 9 8 9 9 9 9 6 6 5 7 6
11 10 10 6 8 5 6 4 2 3 5 5 5 6 5 5 7 6 8 7 8 6 7 6 5 7 8 9 7 10 13 11 7 8 8 10 8 8 7 6 6 7 7
10 9 8 9 6 5 4 6 4 4 3 5 5 5 6 5 4 8 11 10 10 7 7 7 8 9 11 9 13 14 12 7 8 8 9 9 8 8 10 8 8 8 9
9 7 6 6 6 4 3 3 2 3 4 5 6 7 7 7 6 6 6 6 8 8 9 6 8 10 12 13 12 10 8 7 8 8 9 8 8 8 7 5 5 6 4
7 6 6 6 3 3 4 4 5 5 7 7 7 7 6 6 5 10 8 7 6 7 10 7 7 7 8 8 8 7 7 7 8 7 7 6 8 9 7 6 5 4 4
8 5 4 3 2 4 4 4 5 7 8 9 11 9 7 9 11 13 13 14 14 12 7 7 7 8 8 8 8 7 7 9 7 7 6 6 7 8 7 5 4 4 5
5 5 5 6 5 6 6 6 6 5 8 9 10 12 13 12 12 13 16 15 13 10 5 6 6 7 5 6 6 7 7 7 7 6 6 6 7 8 6 6 4 4 5
5 8 3 4 4 5 4 6 5 6 7 6 6 9 12 14 12 13 14 11 6 4 4 5 6 5 6 5 6 7 6 6 6 6 6 6 6 8 7 7 4 4 4
5 5 5 4 4 6 5 5 6 6 7 7 7 6 7 12 12 12 10 5 6 6 6 5 5 5 5 7 5 6 6 6 6 5 5 6 6 7 7 6 4 4 4
5 8 5 4 5 6 7 7 7 7 8 7 8 7 8 8 7 7 6 6 6 6 7 7 6 6 7 7 7 5 7 6 6 6 5 5 5 5 6 6 5 4 3
2 4 5 5 6 7 7 8 8 7 7 7 8 8 10 8 7 7 6 7 6 6 8 8 8 7 7 8 8 6 6 6 5 5 5 5 5 5 5 5 5 4 3
5 6 7 7 7 7 7 7 7 7 8 8 8 9 11 6 7 7 7 7 7 7 7 8 7 7 8 7 7 6 6 7 6 6 5 5 5 5 5 5 4 4 3
4 4 5 5 5 7 7 7 7 7 8 8 9 9 9 8 8 8 8 8 7 7 6 7 9 8 7 7 8 8 7 6 6 4 3 3 4 5 6 5 5 4 4
5 5 6 6 6 7 7 8 8 9 9 9 9 9 9 9 9 10 8 8 8 8 7 7 9 11 10 8 7 7 8 8 7 6 8 6 5 5 7 6 5 5 4
6 6 7 7 7 7 8 8 9 9 9 9 9 9 10 10 10 9 8 8 9 9 9 9 8 11 12 12 10 11 10 8 9 4 4 6 7 8 6 4 4 3 3
7 7 7 7 7 7 8 9 9 9 10 10 10 10 11 10 10 10 9 10 9 10 13 8 10 14 13 10 11 10 8 7 7 7 5 6 6 5 7 6 5 3 4
Wind_Direction
121 153 141 139 130 137 143 143 135 128 128 119 118 107 94 79 59 72 95 95 97 89 61 32 360 334 337 332 333 328 310 296 279 290 300 319 320 333 340 344 326 335 308
146 145 137 135 140 145 146 153 146 139 126 122 106 93 87 70 49 79 93 94 87 71 44 19 348 337 325 313 313 314 298 295 285 301 309 317 315 325 333 327 334 332 281
148 154 164 146 163 160 166 157 142 132 129 124 118 114 104 102 100 69 61 79 81 64 19 3 329 329 318 312 308 303 300 301 287 281 300 299 291 332 339 348 346 345 337
168 188 165 180 174 172 169 152 142 147 138 126 127 121 113 122 93 98 97 51 20 1 336 328 319 312 301 304 306 304 300 304 296 305 299 298 298 337 351 0 346 352 311
173 172 180 174 145 149 132 134 127 119 118 118 120 95 84 136 153 151 129 137 291 315 308 299 303 308 336 341 324 321 310 293 296 307 309 298 325 1 12 343 333 332 310
176 176 156 143 142 149 126 116 123 126 118 116 108 112 130 161 154 146 159 281 303 300 298 302 303 311 338 344 344 344 335 297 290 295 302 324 17 38 0 344 344 1 337
147 132 138 126 132 125 124 130 120 109 120 116 97 112 173 238 192 282 310 271 291 282 277 274 286 328 340 341 337 347 342 14 39 36 31 16 340 2 342 340 340 328 297
104 108 111 110 99 93 99 93 94 85 79 101 130 233 352 281 269 265 265 260 277 273 265 258 247 267 284 327 336 332 337 336 18 6 12 336 327 322 321 309 306 303 294
79 78 67 80 80 64 80 51 0 74 58 298 257 327 299 295 294 282 288 293 287 281 274 297 250 255 249 266 319 313 314 322 331 338 324 305 301 293 303 322 295 328 312
65 76 68 88 46 67 56 50 320 20 101 301 313 298 292 297 305 319 303 281 290 281 271 273 270 252 272 243 243 272 294 309 325 328 330 325 318 307 296 264 268 254 262
75 63 68 40 78 15 65 123 344 353 326 318 322 295 283 278 285 294 310 308 301 303 296 270 242 227 258 273 245 267 270 292 295 301 309 310 305 298 287 278 246 241 235
80 75 62 33 41 37 340 20 347 6 336 308 288 297 293 303 291 296 302 310 303 296 284 274 270 229 252 257 251 255 266 274 277 289 297 300 298 295 293 294 284 256 249
83 70 64 65 37 25 8 4 339 337 323 324 318 311 304 302 307 307 310 303 297 300 293 279 258 254 257 263 257 250 250 257 267 275 288 291 293 289 293 288 284 270 260
52 76 68 74 52 1 27 324 305 324 327 338 334 330 321 322 321 343 346 337 312 302 312 305 296 278 267 266 269 261 250 249 254 266 274 285 289 287 282 274 286 296 284
74 36 47 60 18 5 18 330 353 351 356 352 345 337 330 339 345 325 308 292 297 296 300 280 272 265 261 258 252 246 250 248 251 255 255 264 281 286 284 278 270 281 269
56 34 17 34 359 357 341 338 343 329 327 332 331 329 327 301 308 302 299 308 300 291 288 283 279 272 267 264 257 251 245 254 251 254 260 253 270 272 288 285 267 260 270
43 19 5 359 349 344 346 337 324 326 309 297 299 291 285 285 289 309 317 306 295 301 274 283 284 275 258 268 271 262 254 253 256 249 253 257 260 262 274 279 271 269 268
33 19 358 350 337 319 318 323 324 329 329 323 276 268 282 283 297 303 295 303 310 291 291 296 290 295 287 270 277 266 262 261 254 247 245 247 250 258 263 264 274 295 275
14 6 354 341 341 342 328 335 328 318 309 305 318 306 315 298 300 288 283 294 312 313 304 291 296 284 289 298 271 280 261 261 256 250 239 241 247 255 255 253 262 284 299
6 356 8 352 356 349 349 339 330 319 318 320 315 312 314 310 320 325 315 310 307 307 309 296 300 287 293 291 291 266 286 250 257 243 245 246 245 253 261 260 259 264 278
338 358 359 3 1 347 346 339 319 314 314 307 299 304 297 305 310 317 316 318 310 301 306 303 298 289 286 287 287 283 259 280 244 254 252 247 237 246 246 252 263 259 258
359 -0 4 355 340 335 325 313 312 316 304 304 307 316 316 308 315 316 316 313 305 298 295 293 291 286 289 285 287 293 257 261 270 234 242 228 221 251 261 259 261 261 261
4 2 347 332 323 312 318 317 319 318 312 310 313 320 327 329 323 318 314 309 303 298 295 288 288 286 279 273 276 271 287 260 249 270 225 222 259 235 245 255 248 258 249
0 355 349 341 336 333 329 325 321 318 319 319 321 322 326 325 319 317 313 307 305 300 292 286 284 282 283 275 266 264 259 271 252 247 240 249 251 250 243 245 248 242 236
358 354 352 345 337 332 328 331 327 327 326 324 322 324 321 320 317 314 311 309 307 304 300 293 284 284 279 274 266 257 255 264 263 241 238 246 240 264 250 262 232 231 246
356 353 348 342 339 337 334 331 328 326 325 324 322 322 320 318 315 313 313 310 307 306 303 291 284 285 283 281 265 250 238 236 263 220 228 229 239 250 245 255 234 242 257